Location: Sun City Center
(27.6996°N, 82.3528°W)
Time: 15:26:40
(UTC-04:00)

Hubble Space Telescope - Visible Passes

Search period start: 26 April 2018 00:00
Search period end: 06 May 2018 00:00
Orbit: 537 x 541 km, 28.5° (Epoch: 25 April)

Date Brightness Start Highest point End Pass type
(mag) Time Alt. Az. Time Alt. Az. Time Alt. Az.
26 Apr 0.8 21:15:10 10° WSW 21:19:15 61° SSE 21:20:37 38° ESE visible
27 Apr 0.7 21:04:49 10° WSW 21:08:56 71° SSE 21:11:13 25° E visible
27 Apr 3.6 22:46:02 10° W 22:46:35 13° W 22:46:35 13° W visible
28 Apr 0.7 20:54:30 10° WSW 20:58:38 81° S 21:01:42 17° E visible
28 Apr 3.2 22:35:45 10° W 22:37:04 20° W 22:37:04 20° W visible
29 Apr 0.7 20:44:12 10° W 20:48:20 90° SW 20:52:07 12° E visible
29 Apr 2.7 22:25:28 10° W 22:27:28 27° W 22:27:28 27° W visible
30 Apr 0.8 20:33:55 10° W 20:38:02 84° N 20:42:12 10° E visible
30 Apr 2.1 22:15:11 10° W 22:17:47 37° W 22:17:47 37° W visible
01 May 0.9 20:23:37 10° W 20:27:46 80° N 20:31:55 10° E visible
01 May 1.4 22:04:54 10° W 22:08:03 51° W 22:08:03 51° W visible
02 May 0.9 21:54:36 10° W 21:58:17 65° WSW 21:58:17 65° WSW visible
03 May 0.8 21:44:20 10° W 21:48:25 62° SSW 21:48:30 62° S visible
04 May 1.0 21:34:04 10° W 21:38:05 52° SSW 21:38:43 46° SSE visible
05 May 1.4 21:23:50 10° W 21:27:45 42° SSW 21:28:56 33° SSE visible
